"Pseudo-MPEC" for C13W9P5

Created 2025 May 12 2:31:01 UT using Find_Orb

Click here for an explanation of pseudo-MPECs

 
 Astrometry: 
     C13W9P5* C2025 04 25.18761110 54 41.044+26 47 47.11   ~4P5H 23.02GVNEOCPV00
     C13W9P5  C2025 04 25.19322810 54 43.499+26 47 51.29   ~4P5H 22.52GVNEOCPV00
     C13W9P5  C2025 04 25.19883310 54 45.979+26 47 55.97   ~4P5H 22.74GVNEOCPV00
     C13W9P5  C2025 04 25.20444610 54 48.467+26 48 00.22   ~4P5H       VNEOCPV00
     C13W9P5 KC2025 04 25.32647 10 55 42.64 +26 49 29.3    ~4P8l       VNEOCP291
     C13W9P5 KC2025 04 25.33804 10 55 47.80 +26 49 35.4    ~4P8l 22.9 GVNEOCP291
     C13W9P5  C2025 04 26.27030011 02 48.870+27 00 24.70   ~4Q82 23.5 RVNEOCP291
     C13W9P5  C2025 04 26.29183011 02 58.100+27 00 36.20   ~4Q82       VNEOCP291

Station data:
(291) LPL/Spacewatch II  (N31.961669 W111.599905)  US/Arizona.  Observers J.
   V. Scotti, R. S. McMillan. 1.8-m f/2.7 reflector + CCD.
(V00) Kitt Peak-Bok  (N31.963125 W111.600190)  US/Arizona.  Observers T. A.
   Pruyne, B. M. Africano, E. J. Christensen, G. A. Farneth, D. C. Fuls, A.
   R. Gibbs, A. D. Grauer, H. Gröller, J. A. Johnson, R. A. Kowalski, S. M.
   Larson, G. J. Leonard, D. Rankin, R. L. Seaman, F. C. Shelly, K. W.
   Wierzchoś. 2.25-m reflector + 4x4K mosaic CCD.

Orbital elements:  C13W9P5
   Perihelion 2025 Mar 7.45571 +/- 8.48 TT = 10:56:13 (JD 2460741.95571)
Epoch 2025 Apr 26.0 TT = JDT 2460791.5   Earth MOID: 0.0517      AutoNEOCP
M  26.05966690 +/- 9                (J2000 ecliptic)
n   0.52598731 +/- 0.0938           Peri.  322.26327 +/- 10
a   1.51991464 +/- 0.181            Node   193.10467 +/- 1.4
e   0.3394099 +/- 0.0577            Incl.   13.31610 +/- 0.30
P   1.874/684.414d         H 24.61  G  0.15   U 11.2
q 1.00404055 +/- 0.0319    Q 2.03578873 +/- 0.329
From 8 observations 2025 Apr. 25-26 (26.5 hr); mean residual 0".36
Residuals in arcseconds: 
250425 V00  .23+  .15-    250425 V00  .04+  .07-    250426 291  .19+  .12+    
250425 V00  .13-  .34-    250425 291  .11+  1.1+    250426 291  .17-  .18-    
250425 V00  .07-  .00     250425 291  .19-  .57-    

Ephemerides (geocentric):
Date (UTC) HH   RA             Dec           delta  r     elong  mag " sig PA
---- --------  ------------   ------------  ------ ------ -----  --- --------
2025 05 12 03  12 32 39.435   +25 59 39.04  .28762 1.1834 120.8 24.1 2183  95
2025 05 12 04  12 32 49.966   +25 59 07.07  .28789 1.1836 120.8 24.1 2190  95
2025 05 12 05  12 33 00.483   +25 58 35.03  .28816 1.1838 120.8 24.1 2197  95
2025 05 12 06  12 33 10.985   +25 58 02.92  .28842 1.1839 120.8 24.1 2204  95
2025 05 12 07  12 33 21.472   +25 57 30.75  .28869 1.1841 120.8 24.1 2211  95
2025 05 12 08  12 33 31.944   +25 56 58.50  .28896 1.1843 120.8 24.1 2218  95
2025 05 12 09  12 33 42.401   +25 56 26.19  .28922 1.1845 120.8 24.1 2225  96
2025 05 12 10  12 33 52.844   +25 55 53.81  .28949 1.1847 120.8 24.1 2233  96
2025 05 12 11  12 34 03.272   +25 55 21.37  .28976 1.1849 120.8 24.1 2240  96
2025 05 12 12  12 34 13.685   +25 54 48.86  .29003 1.1851 120.8 24.1 2247  96
2025 05 12 13  12 34 24.083   +25 54 16.28  .29030 1.1853 120.8 24.1 2254  96
2025 05 12 14  12 34 34.467   +25 53 43.64  .29056 1.1855 120.8 24.1 2261  96
2025 05 12 15  12 34 44.837   +25 53 10.93  .29083 1.1857 120.8 24.1 2268  96
2025 05 12 16  12 34 55.191   +25 52 38.16  .29110 1.1859 120.8 24.1 2275  96
2025 05 12 17  12 35 05.532   +25 52 05.32  .29137 1.1861 120.8 24.1 2282  96
2025 05 12 18  12 35 15.857   +25 51 32.41  .29164 1.1863 120.8 24.1 2289  96
2025 05 12 19  12 35 26.169   +25 50 59.44  .29191 1.1865 120.8 24.1 2297  96
2025 05 12 20  12 35 36.466   +25 50 26.41  .29218 1.1866 120.8 24.1 2304  96
2025 05 12 21  12 35 46.748   +25 49 53.31  .29245 1.1868 120.8 24.1 2311  96
2025 05 12 22  12 35 57.016   +25 49 20.15  .29272 1.1870 120.8 24.1 2318  96
2025 05 12 23  12 36 07.270   +25 48 46.93  .29299 1.1872 120.8 24.1 2325  96
2025 05 13 00  12 36 17.509   +25 48 13.64  .29326 1.1874 120.8 24.1 2332  96
2025 05 13 01  12 36 27.734   +25 47 40.28  .29353 1.1876 120.8 24.1 2339  96
2025 05 13 02  12 36 37.945   +25 47 06.87  .29380 1.1878 120.8 24.1 2346  96
2025 05 13 03  12 36 48.142   +25 46 33.39  .29407 1.1880 120.8 24.1 2353  96
2025 05 13 04  12 36 58.324   +25 45 59.85  .29434 1.1882 120.8 24.1 2360  96
2025 05 13 05  12 37 08.493   +25 45 26.25  .29461 1.1884 120.8 24.1 2367  96
2025 05 13 06  12 37 18.647   +25 44 52.58  .29488 1.1886 120.8 24.1 2374  96
2025 05 13 07  12 37 28.787   +25 44 18.85  .29515 1.1888 120.8 24.1 2381  96
2025 05 13 08  12 37 38.913   +25 43 45.06  .29542 1.1890 120.8 24.1 2388  96
2025 05 13 09  12 37 49.025   +25 43 11.21  .29569 1.1892 120.8 24.1 2395  96
2025 05 13 10  12 37 59.123   +25 42 37.30  .29596 1.1894 120.8 24.1 2402  96
2025 05 13 11  12 38 09.206   +25 42 03.33  .29623 1.1895 120.8 24.1 2409  96
2025 05 13 12  12 38 19.276   +25 41 29.30  .29650 1.1897 120.8 24.1 2416  96
2025 05 13 13  12 38 29.332   +25 40 55.20  .29678 1.1899 120.8 24.1 2423  96
2025 05 13 14  12 38 39.375   +25 40 21.05  .29705 1.1901 120.8 24.1 2430  96
2025 05 13 15  12 38 49.403   +25 39 46.83  .29732 1.1903 120.8 24.1 2437  96
2025 05 13 16  12 38 59.417   +25 39 12.56  .29759 1.1905 120.8 24.1 2444  96
2025 05 13 17  12 39 09.418   +25 38 38.23  .29786 1.1907 120.8 24.1 2451  96
2025 05 13 18  12 39 19.405   +25 38 03.83  .29814 1.1909 120.8 24.1 2458  96
2025 05 13 19  12 39 29.378   +25 37 29.38  .29841 1.1911 120.8 24.1 2465  96
2025 05 13 20  12 39 39.337   +25 36 54.87  .29868 1.1913 120.8 24.1 2472  96
2025 05 13 21  12 39 49.283   +25 36 20.30  .29896 1.1915 120.8 24.1 2479  96
2025 05 13 22  12 39 59.215   +25 35 45.67  .29923 1.1917 120.8 24.1 2486  96
2025 05 13 23  12 40 09.133   +25 35 10.98  .29950 1.1919 120.8 24.1 2493  96
2025 05 14 00  12 40 19.038   +25 34 36.23  .29977 1.1921 120.8 24.1 2500  96
2025 05 14 01  12 40 28.929   +25 34 01.43  .30005 1.1923 120.8 24.1 2507  96
2025 05 14 02  12 40 38.807   +25 33 26.57  .30032 1.1925 120.8 24.1 2514  96